ALK143 VCBI-VABB

Flight info

Callsign ALK143
Flight time N/A
Altitude 38000
Route ATETA1D ATETA T4 TTR W42 BIA W56 AGELA MOLGO2A
Aircraft A20N/M-SDE2E3FGHIRWXY/LB1

Departure

Time 2026-04-30 11:22
Airport Bandaranaike International Colombo Airport (VCBI)

Arrival

Time N/A
Airport Chhatrapati Shivaji Maharaj International Airport (VABB)
Time Latitude Longitude Altitude Speed Heading
2026-04-30 11:13 7.17615 79.88567 30 ft 0 kts 217°
2026-04-30 11:13 7.17629 79.88578 30 ft 3 kts 217°
2026-04-30 11:14 7.17644 79.88590 30 ft 3 kts 217°
2026-04-30 11:14 7.17659 79.88601 30 ft 3 kts 217°
2026-04-30 11:14 7.17673 79.88612 30 ft 3 kts 217°
2026-04-30 11:14 7.17687 79.88624 30 ft 3 kts 238°
2026-04-30 11:15 7.17693 79.88641 30 ft 3 kts 277°
2026-04-30 11:15 7.17688 79.88656 30 ft 0 kts 309°
2026-04-30 11:17 7.17689 79.88655 30 ft 0 kts 309°
2026-04-30 11:18 7.17695 79.88649 30 ft 5 kts 313°
2026-04-30 11:18 7.17761 79.88566 30 ft 8 kts 307°
2026-04-30 11:18 7.17793 79.88522 30 ft 8 kts 308°
2026-04-30 11:19 7.17833 79.88470 30 ft 10 kts 307°
2026-04-30 11:19 7.17894 79.88440 30 ft 11 kts 19°
2026-04-30 11:19 7.17966 79.88488 30 ft 14 kts 37°
2026-04-30 11:19 7.18048 79.88551 30 ft 16 kts 37°
2026-04-30 11:20 7.18141 79.88623 30 ft 18 kts 36°
2026-04-30 11:20 7.18246 79.88702 30 ft 20 kts 39°
2026-04-30 11:20 7.18363 79.88788 30 ft 22 kts 36°
2026-04-30 11:20 7.18490 79.88885 31 ft 24 kts 38°
2026-04-30 11:21 7.18605 79.88947 31 ft 17 kts 343°
2026-04-30 11:21 7.18683 79.88859 31 ft 17 kts 301°
2026-04-30 11:21 7.18571 79.88721 31 ft 52 kts 217°
2026-04-30 11:21 7.18104 79.88366 32 ft 114 kts 217°
2026-04-30 11:22 7.17349 79.87788 145 ft 149 kts 218°
2026-04-30 11:22 7.16520 79.87113 590 ft 158 kts 219°
2026-04-30 11:22 7.15779 79.86324 1183 ft 154 kts 243°
2026-04-30 11:22 7.15757 79.85234 1649 ft 170 kts 287°
2026-04-30 11:23 7.16314 79.84015 1893 ft 211 kts 288°
2026-04-30 11:23 7.16812 79.82507 2265 ft 241 kts 283°
2026-04-30 11:23 7.18960 79.79736 3482 ft 274 kts 335°
2026-04-30 11:24 7.20186 79.79387 3984 ft 279 kts 349°
2026-04-30 11:24 7.22125 79.79170 4803 ft 282 kts 355°
2026-04-30 11:24 7.24723 79.79005 5961 ft 282 kts 356°
2026-04-30 11:25 7.28666 79.78763 7559 ft 286 kts 356°
2026-04-30 11:25 7.30010 79.78676 8084 ft 288 kts 356°
2026-04-30 11:25 7.34040 79.78407 9694 ft 293 kts 356°
2026-04-30 11:26 7.38242 79.78122 10646 ft 319 kts 357°
2026-04-30 11:26 7.40506 79.77967 11085 ft 331 kts 357°
2026-04-30 11:26 7.42825 79.77808 11690 ft 336 kts 357°
2026-04-30 11:27 7.45174 79.77647 12339 ft 340 kts 357°
2026-04-30 11:27 7.47545 79.77484 12982 ft 344 kts 358°
2026-04-30 11:27 7.49956 79.77320 13576 ft 350 kts 358°
2026-04-30 11:27 7.52400 79.77153 14169 ft 354 kts 358°
2026-04-30 11:28 7.57352 79.76814 15365 ft 360 kts 358°
2026-04-30 11:28 7.59865 79.76642 15966 ft 364 kts 358°
2026-04-30 11:28 7.62400 79.76472 16570 ft 367 kts 358°
2026-04-30 11:29 7.64946 79.76300 17144 ft 362 kts 358°